Weather in Osokino

Russia / Omsk Oblast     54°53′27″N   74°36′54″E
temp.,
°C
wind,
m/s
gust,
m/s
humid.,
%
clouds,
%
prec.,
mm/h
press.,
hPa
HPBL,
m
11 april, sun
sun1100:000e3493100 0.0 1042152
03:000e3390100 0.0 104294
06:000e2390100 0.0 104364
09:00+1se2295100 0.0 104348
12:00+1ssw11100100 0.0 104315
15:00+2sw1210090 0.0 104271
18:00+1sw11100100 0.0 104218
21:00−1ssw2398100 0.0 104197
12 april, mon
mon1200:00−1sw3598100 0.0 1039198
03:00−1wsw4697100 0.0 1038221
06:00−2sw3897100 0.0 1037146
09:00+1sw499120 0.0 1035213
12:00+2sw4998100 0.0 1034220
15:00+5wsw4996100 0.0 1033306
18:00+5w3990100 0.0 1033174
21:00+3nw31097100 0.3 1033215
13 april, tue
tue1300:00+2nnw3899100 0.3 1034196
03:00+1nnw3895100 0.0 1035164
06:000nnw35870 0.0 103770
09:00+3nnw37800 0.0 1038238
12:00+6nw56654 0.0 1039683
15:00+8nw57575 0.0 1038931
18:00+7nw48684 0.0 1038449
21:00+4wnw348043 0.0 103860
14 april, wed
wed1400:00+3w338227 0.0 103840
03:00+2w35824 0.0 103769
06:00+2wsw358492 0.0 103680
09:00+5wsw4980100 0.0 1035286
12:00+9wsw61064100 0.0 1033588
15:00+11wsw71051100 0.0 1031892
18:00+11wsw61157100 0.0 1028525
21:00+7w41175100 0.0 1027223
15 april, thu
thu1500:00+6w410825 0.0 1026165
03:00+6w35871 0.0 102584
06:00+5w33900 0.0 102439
09:00+9w35845 0.0 1024200
12:00+14w56725 0.0 1022620
15:00+16w57625 0.0 10201329
18:00+16w57595 0.0 1019924
21:00+12wsw487818 0.1 1018134